Total_Precipitation_Accumulation
0.67 0.38 0.42 0.41 0.38 0.40 0.38 0.43 0.49 0.49 0.44 0.39 0.33 0.30 0.27 0.29 0.32 0.35 0.38 0.42 0.49 0.64 0.74 0.81 0.86 0.87 0.89 0.91 1.02 1.12 1.06 1.01 1.04 1.09 1.28 1.32 1.33 1.43 1.38 1.27 1.25 1.09 1.03
0.51 0.36 0.45 0.42 0.40 0.41 0.40 0.45 0.48 0.52 0.49 0.48 0.41 0.35 0.34 0.33 0.35 0.41 0.44 0.48 0.57 0.66 0.69 0.81 0.85 0.84 0.79 0.78 0.86 0.97 0.91 0.95 1.09 1.23 1.35 1.34 1.46 1.66 1.61 1.46 1.63 1.50 1.10
0.38 0.35 0.43 0.43 0.40 0.45 0.44 0.47 0.51 0.55 0.54 0.51 0.48 0.43 0.41 0.43 0.45 0.47 0.51 0.57 0.68 0.76 0.76 0.82 0.89 0.85 0.79 0.71 0.78 0.87 0.86 0.94 1.24 1.47 1.76 1.80 1.75 1.89 1.72 1.55 1.50 1.37 1.09
0.47 0.52 0.50 0.42 0.41 0.46 0.47 0.51 0.54 0.57 0.61 0.62 0.62 0.54 0.48 0.49 0.53 0.54 0.57 0.62 0.74 0.89 0.88 0.81 0.83 0.85 0.76 0.73 0.83 0.86 0.88 1.03 1.43 1.76 2.14 2.10 2.19 2.33 1.95 1.65 1.54 1.40 1.24
0.55 0.65 0.59 0.47 0.47 0.47 0.54 0.52 0.56 0.60 0.66 0.71 0.75 0.78 0.69 0.54 0.54 0.58 0.67 0.75 0.82 0.93 1.13 1.02 0.89 0.92 0.79 0.79 0.90 0.90 0.95 1.17 1.59 1.83 2.18 2.54 2.92 2.88 2.15 1.77 1.66 1.57 1.43
0.56 0.60 0.58 0.56 0.55 0.54 0.57 0.59 0.65 0.72 0.75 0.76 0.81 0.87 0.91 0.72 0.66 0.67 0.79 0.89 0.91 0.93 1.07 1.27 1.11 1.16 1.08 0.91 0.93 0.90 1.04 1.32 1.46 1.71 2.42 2.85 2.89 2.80 2.25 1.92 1.81 1.88 1.74
0.60 0.63 0.72 0.77 0.81 0.81 0.77 0.76 0.81 0.85 0.87 0.89 0.88 0.88 0.98 0.90 0.81 0.85 0.93 1.00 1.05 1.08 1.15 1.19 1.12 1.28 1.16 0.98 0.98 0.99 1.14 1.36 1.40 1.81 2.44 2.92 2.81 2.68 2.45 2.22 2.07 2.05 1.95
0.72 0.79 0.93 1.08 1.18 1.09 1.01 0.96 0.97 0.94 0.92 0.96 1.06 1.01 1.02 1.06 1.02 0.97 1.03 1.13 1.26 1.32 1.33 1.31 1.25 1.30 1.27 1.17 1.10 1.08 1.16 1.25 1.26 1.68 2.22 2.56 2.52 2.42 2.50 2.32 2.18 2.07 1.99
1.11 1.19 1.17 1.10 1.10 1.14 1.12 1.06 1.11 1.10 1.06 1.06 1.16 1.22 1.13 1.15 1.17 1.17 1.27 1.32 1.33 1.30 1.31 1.39 1.52 1.45 1.30 1.25 1.24 1.20 1.21 1.34 1.46 1.70 2.08 2.49 2.42 2.56 2.68 2.44 2.15 2.11 2.12
1.95 2.17 1.64 1.30 1.16 1.06 1.09 1.19 1.24 1.37 1.32 1.23 1.24 1.35 1.33 1.35 1.38 1.43 1.46 1.47 1.42 1.40 1.36 1.49 1.62 1.65 1.51 1.38 1.31 1.29 1.32 1.32 1.21 1.57 2.16 2.35 2.46 2.80 3.02 2.80 2.46 2.27 2.17
2.49 2.66 2.01 1.61 1.43 1.34 1.36 1.39 1.46 1.60 1.68 1.54 1.43 1.47 1.59 1.71 1.95 1.95 1.73 1.73 1.60 1.61 1.59 1.64 1.70 1.70 1.76 1.75 1.64 1.56 1.49 1.29 1.53 1.76 2.00 2.29 2.68 3.14 3.26 3.09 2.72 2.45 2.34
2.67 2.46 2.21 2.06 1.79 1.64 1.61 1.80 1.88 1.81 1.84 1.70 1.84 1.77 1.92 2.40 2.57 2.25 2.18 2.08 1.92 1.91 2.00 2.01 1.97 1.91 1.79 1.77 1.97 1.99 1.63 1.56 1.77 1.95 2.07 2.26 2.62 3.15 3.36 3.18 2.91 2.75 2.66
3.25 2.75 2.46 2.23 2.15 2.01 2.10 2.30 2.39 2.43 2.43 2.23 2.35 2.32 2.41 2.57 2.52 2.50 2.48 2.32 2.30 2.25 2.38 2.49 2.33 2.06 1.88 1.90 2.01 2.07 1.93 1.92 1.93 2.04 2.17 2.44 2.72 3.18 3.45 3.30 3.04 2.95 2.92
3.42 3.29 2.73 2.57 2.69 2.90 2.91 2.82 2.73 2.70 2.79 2.73 2.74 2.56 2.67 2.76 2.78 2.70 2.69 2.54 2.62 2.57 2.71 2.70 2.65 2.52 2.33 2.13 2.07 2.19 2.30 2.33 2.22 2.27 2.53 2.66 2.67 2.98 3.42 3.46 3.29 3.18 3.17
3.45 3.36 3.05 3.21 3.33 3.41 3.40 3.34 3.08 3.00 3.23 3.26 3.19 3.04 3.00 2.92 2.82 2.84 2.78 2.76 2.62 2.78 2.92 2.96 2.78 2.69 2.61 2.46 2.23 2.22 2.40 2.49 2.66 2.70 2.75 2.78 2.58 2.73 3.23 3.65 3.72 3.72 3.66
3.35 3.58 3.57 3.68 3.58 3.48 3.52 3.66 3.70 3.44 3.55 3.75 3.83 3.66 3.42 3.26 3.18 3.19 3.26 3.19 2.90 2.93 3.07 3.24 3.13 3.00 2.73 2.57 2.41 2.41 2.40 2.39 2.58 2.77 2.81 2.84 2.71 2.66 3.07 3.61 3.94 4.08 4.06
3.55 3.62 3.69 3.60 3.77 3.87 3.87 3.81 3.87 3.78 3.72 3.85 4.04 4.08 3.74 3.44 3.51 3.53 3.66 3.60 3.23 3.16 3.31 3.48 3.50 3.39 2.99 2.68 2.61 2.65 2.64 2.70 2.61 2.60 2.80 2.88 2.77 2.78 3.00 3.21 3.51 3.76 3.94
3.61 3.93 3.87 3.47 3.86 4.05 4.01 3.97 3.74 3.82 4.03 4.19 4.22 4.36 4.06 3.67 3.56 3.73 3.62 3.43 3.36 3.42 3.67 3.91 3.87 3.82 3.60 3.31 3.12 2.81 2.64 2.65 2.60 2.72 2.72 2.77 3.07 2.96 2.94 2.84 3.01 3.32 3.60
3.80 4.28 4.06 3.76 3.92 4.05 4.11 4.18 3.92 3.99 4.31 4.44 4.55 4.56 4.14 3.73 3.67 3.90 3.91 3.87 3.76 3.79 3.86 3.75 3.98 3.89 3.99 3.77 3.28 3.01 2.78 2.66 2.65 2.68 2.74 2.71 2.85 2.99 2.95 2.76 2.81 3.05 3.28
4.06 4.73 4.31 3.89 3.88 4.17 4.20 4.08 4.04 4.16 4.45 4.73 4.78 4.60 4.33 4.17 4.02 4.18 4.11 4.16 4.20 4.27 4.13 4.10 4.20 4.00 3.88 3.77 3.35 3.13 2.90 2.65 2.63 2.59 2.51 2.55 2.63 2.55 2.62 2.60 2.71 2.64 2.88
4.00 4.44 4.42 4.20 4.22 4.29 4.35 4.14 4.28 4.47 4.75 5.02 4.95 4.87 4.78 4.66 4.59 4.67 4.70 4.67 4.51 4.40 4.26 4.15 4.14 4.06 3.80 3.58 3.55 3.21 2.76 2.37 2.21 2.13 2.16 2.24 2.24 2.22 2.33 2.52 2.68 2.62 2.50
3.74 3.97 4.24 4.37 4.38 4.15 4.49 4.78 5.04 5.35 5.36 5.65 5.94 6.00 5.80 5.51 5.31 5.17 5.18 4.88 4.56 4.39 4.23 4.06 3.99 3.84 3.51 3.37 3.39 3.41 2.93 2.46 2.01 1.75 1.85 1.83 1.88 2.05 2.14 2.10 2.21 2.27 2.19
3.56 3.89 4.20 4.51 4.60 4.50 4.95 5.46 5.90 6.22 6.13 6.17 6.21 6.22 6.15 5.72 5.38 5.17 4.96 4.79 4.59 4.41 4.22 4.12 4.02 3.89 3.56 3.35 3.28 3.50 3.33 2.86 2.29 1.96 1.78 1.78 1.88 1.98 1.96 1.93 1.93 1.93 1.97
3.29 3.67 3.95 4.35 4.76 5.02 5.37 5.86 6.40 6.74 6.94 6.78 6.45 6.18 5.83 5.39 5.02 4.65 4.48 4.52 4.42 4.21 3.98 3.66 3.55 3.55 3.46 3.26 3.16 3.02 2.98 2.92 2.71 2.38 2.09 2.05 2.08 2.03 1.96 1.93 2.01 2.08 2.09
3.04 3.39 3.79 4.12 4.50 5.10 5.85 6.45 6.92 7.27 7.27 6.73 6.16 5.58 5.15 4.78 4.43 4.16 4.07 4.17 4.08 3.82 3.63 3.35 3.15 3.00 2.99 3.01 3.01 2.91 2.79 2.71 2.53 2.40 2.22 2.11 2.07 1.99 1.91 1.87 1.95 2.06 2.12
2.80 3.06 3.53 4.04 4.37 4.91 5.64 6.27 6.61 6.80 6.72 6.30 5.65 5.10 4.69 4.25 3.87 3.52 3.30 3.25 3.17 2.98 2.89 2.85 2.78 2.73 2.73 2.76 2.77 2.69 2.61 2.58 2.51 2.49 2.35 2.10 2.04 2.08 2.00 1.87 1.78 1.79 1.82